Location: Unspecified
(54.1780°N, 0.0000°E)
Time: 16:11:21
(UTC+00:00)

Altair - Pass Details

Date: 25 June 2019
Orbit: 1501 x 1683 km, 47.2° (Epoch: 21 July)

Event Time Altitude Azimuth Distance (km) Brightness Sun altitude
Rises 21:18:09 0° 255° (WSW) 4,730 10.4 -4.8°
Reaches altitude 10° 21:21:14 10° 251° (WSW) 3,770 9.8 -5.0°
Maximum altitude 21:30:33 58° 176° (S) 1,836 7.7 -5.8°
Drops below altitude 10° 21:40:15 10° 101° (E) 3,907 9.2 -6.6°
Sets 21:43:29 0° 98° (E) 4,911 9.8 -6.9°
